[TLELIST] Archives

 

[TLELIST] Current TLEs

May 13th 2024 PDT

HST 1 20580U 90037B 24133.93546526 .00010058 00000-0 48200-3 0 9998 2 20580 28.4678 221.2346 0002503 24.4334 335.6376 15.17253299671676 ISS (ZARYA) 1 25544U 98067A 24134.36607418 .00032166 00000-0 54399-3 0 9990 2 25544 51.6380 128.0115 0002966 160.3223 355.4748 15.51283459453149 CXO 1 25867U 99040B 24136.12859698 .00000643 00000-0 00000-0 0 9997 2 25867 40.4499 156.9026 8925978 294.2298 359.7347 0.37810674 14439 ...Continue Reading

[TLELIST] Current TLEs

May 13th 2024 PDT

HST 1 20580U 90037B 24133.93546526 .00010058 00000-0 48200-3 0 9998 2 20580 28.4678 221.2346 0002503 24.4334 335.6376 15.17253299671676 ISS (ZARYA) 1 25544U 98067A 24134.36607418 .00032166 00000-0 54399-3 0 9990 2 25544 51.6380 128.0115 0002966 160.3223 355.4748 15.51283459453149 CXO 1 25867U 99040B 24136.12859698 .00000643 00000-0 00000-0 0 9997 2 25867 40.4499 156.9026 8925978 294.2298 359.7347 0.37810674 14439 ...Continue Reading

[TLELIST] Current TLEs

May 12th 2024 PDT

HST 1 20580U 90037B 24132.68568539 .00023621 00000-0 11438-2 0 9999 2 20580 28.4680 229.6020 0002410 11.2087 348.8559 15.17223185671485 ISS (ZARYA) 1 25544U 98067A 24133.40046916 .00034078 00000-0 57671-3 0 9994 2 25544 51.6383 132.8068 0003345 161.0373 358.7827 15.51234309452994 CXO 1 25867U 99040B 24133.48325748 .00000624 00000-0 00000+0 0 9995 2 25867 40.3932 157.1734 8928898 294.0177 359.6485 0.37809329 25582 ...Continue Reading

[TLELIST] Current TLEs

May 11th 2024 PDT

HST 1 20580U 90037B 24131.69899016 .00009181 00000-0 44017-3 0 9991 2 20580 28.4681 236.2074 0002356 1.0080 359.0517 15.17176780671338 ISS (ZARYA) 1 25544U 98067A 24132.36613887 .00017080 00000-0 29475-3 0 9990 2 25544 51.6381 137.9361 0003535 157.3552 342.5950 15.51115688452831 CXO 1 25867U 99040B 24133.48325748 .00000624 00000-0 00000+0 0 9995 2 25867 40.3932 157.1734 8928898 294.0177 359.6485 0.37809329 25582 ...Continue Reading

[TLELIST] Current TLEs

May 11th 2024 PDT

HST 1 20580U 90037B 24131.69899016 .00009181 00000-0 44017-3 0 9991 2 20580 28.4681 236.2074 0002356 1.0080 359.0517 15.17176780671338 ISS (ZARYA) 1 25544U 98067A 24132.36613887 .00017080 00000-0 29475-3 0 9990 2 25544 51.6381 137.9361 0003535 157.3552 342.5950 15.51115688452831 CXO 1 25867U 99040B 24133.48325748 .00000624 00000-0 00000+0 0 9995 2 25867 40.3932 157.1734 8928898 294.0177 359.6485 0.37809329 25582 ...Continue Reading

[TLELIST] Current TLEs

May 10th 2024 PDT

HST 1 20580U 90037B 24130.71227376 .00007618 00000-0 36385-3 0 9999 2 20580 28.4684 242.8122 0002264 349.8512 10.2035 15.17160579671182 ISS (ZARYA) 1 25544U 98067A 24131.34361111 .00016150 00000-0 27956-3 0 9996 2 25544 51.6380 143.0116 0003517 153.6886 32.7265 15.51076013452672 CXO 1 25867U 99040B 24133.48325748 .00000624 00000-0 00000+0 0 9995 2 25867 40.3932 157.1734 8928898 294.0177 359.6485 0.37809329 25582 ...Continue Reading

[TLELIST] Current TLEs

May 10th 2024 PDT

HST 1 20580U 90037B 24130.71227376 .00007618 00000-0 36385-3 0 9999 2 20580 28.4684 242.8122 0002264 349.8512 10.2035 15.17160579671182 ISS (ZARYA) 1 25544U 98067A 24131.34361111 .00016150 00000-0 27956-3 0 9996 2 25544 51.6380 143.0116 0003517 153.6886 32.7265 15.51076013452672 CXO 1 25867U 99040B 24133.48325748 .00000624 00000-0 00000+0 0 9995 2 25867 40.3932 157.1734 8928898 294.0177 359.6485 0.37809329 25582 ...Continue Reading

[TLELIST] Current TLEs

May 9th 2024 PDT

HST 1 20580U 90037B 24129.65976583 .00007447 00000-0 35564-3 0 9999 2 20580 28.4687 249.8567 0002162 337.8803 22.1696 15.17146625671026 ISS (ZARYA) 1 25544U 98067A 24130.36689744 .00016024 00000-0 27777-3 0 9993 2 25544 51.6381 147.8590 0003466 150.4670 338.5502 15.51043222452521 CXO 1 25867U 99040B 24133.48260059 .00000624 00000-0 00000+0 0 9998 2 25867 40.3930 157.1735 8928908 294.0177 359.5589 0.37808239 25586 ...Continue Reading

[TLELIST] Current TLEs

May 8th 2024 PDT

HST 1 20580U 90037B 24128.73881392 .00007122 00000-0 33982-3 0 9992 2 20580 28.4686 256.0211 0002089 327.7152 32.3312 15.17133605670889 ISS (ZARYA) 1 25544U 98067A 24129.34837963 .00014166 00000-0 24687-3 0 9999 2 25544 51.6381 152.9120 0003336 147.3897 50.7616 15.51003210452363 CXO 1 25867U 99040B 24130.83982923 .00000587 00000-0 00000-0 0 9994 2 25867 40.3330 157.4669 8931258 293.7855 359.8450 0.37811134 14429 ...Continue Reading

[TLELIST] Current TLEs

May 7th 2024 PDT

HST 1 20580U 90037B 24128.08098645 .00007198 00000-0 34363-3 0 9998 2 20580 28.4684 260.4235 0002014 320.4242 39.6203 15.17125405671047 ISS (ZARYA) 1 25544U 98067A 24128.36829091 .00016537 00000-0 28705-3 0 9992 2 25544 51.6388 157.7777 0003617 143.3446 338.7927 15.50977738452211 CXO 1 25867U 99040B 24128.19632862 .00000638 00000-0 00000+0 0 9990 2 25867 40.2552 157.8199 8932055 293.5091 0.0392 0.37812619 25568 ...Continue Reading
  • This mailing list is a public mailing list - anyone may join or leave, at any time.
  • This mailing list is announce-only.

International Space Station (ISS) / Hubble Space Telescope (HST) / Chandra X-Ray Observatory Orbital Data via EMAIL

Privacy Policy:

Private list